South Armidale Weather

South Armidale Weather


Today's Observations
Date Time Temperature Humidity Dewpoint Wind Speed High Gust Wind Bearing Rainfall Rate Total Rainfall Pressure Gust Wind Chill Heat Index UV Index
26/05/19 03:18 5.6 75 1.5 0.0 0.0 0 0.0 0.0 1016.0 0.0 0.0 5.6 0.0
26/05/19 03:15 5.6 75 1.5 1.4 4.0 314 34.8 0.0 1016.0 4.0 5.8 5.6 0.0
26/05/19 03:14 5.7 75 1.6 1.4 4.0 314 34.8 0.0 1016.0 4.0 5.8 5.7 0.0
26/05/19 03:13 5.7 75 1.6 1.4 4.0 314 34.8 0.0 1016.0 4.0 5.8 5.7 0.0
26/05/19 03:12 5.7 75 1.6 1.4 4.0 314 34.8 0.0 1016.0 4.0 5.8 5.7 0.0
26/05/19 03:11 5.7 75 1.6 1.4 4.0 314 34.8 0.0 1016.0 4.0 5.8 5.7 0.0
26/05/19 03:10 5.7 75 1.6 1.4 4.0 314 34.8 0.0 1016.0 4.0 5.8 5.7 0.0
26/05/19 03:09 5.8 75 1.7 1.4 4.0 314 34.8 0.0 1016.0 4.0 5.8 5.8 0.0
26/05/19 03:08 5.8 75 1.7 1.4 4.0 314 34.8 0.0 1016.0 4.0 5.8 5.8 0.0
26/05/19 03:07 5.8 75 1.7 1.4 4.0 314 34.8 0.0 1017.0 4.0 5.8 5.8 0.0
26/05/19 03:06 5.8 75 1.7 1.4 4.0 314 34.8 0.0 1017.0 4.0 5.8 5.8 0.0
26/05/19 03:05 5.8 75 1.7 1.4 4.0 314 34.8 0.0 1017.0 4.0 5.8 5.8 0.0
26/05/19 03:04 5.8 75 1.7 1.4 4.0 314 34.8 0.0 1017.0 4.0 5.8 5.8 0.0
26/05/19 03:03 5.9 75 1.8 1.4 4.0 314 34.8 0.0 1017.0 4.0 5.8 5.9 0.0
26/05/19 03:02 5.8 75 1.7 1.4 4.0 314 34.8 0.0 1017.0 4.0 5.8 5.8 0.0
26/05/19 03:02 5.8 75 1.7 1.4 4.0 314 34.8 0.0 1017.0 4.0 5.8 5.8 0.0
26/05/19 03:01 5.8 75 1.7 1.4 4.0 314 34.8 0.0 1017.0 4.0 5.8 5.8 0.0
26/05/19 03:00 5.8 75 1.7 1.4 4.0 314 34.8 0.0 1017.0 4.0 5.8 5.8 0.0
26/05/19 02:59 5.8 75 1.7 1.4 4.0 314 34.8 0.0 1017.0 4.0 5.8 5.8 0.0
26/05/19 02:58 5.8 75 1.7 1.4 4.0 314 34.8 0.0 1017.0 4.0 5.8 5.8 0.0
26/05/19 02:57 5.8 75 1.7 1.4 4.0 314 34.8 0.0 1017.0 4.0 5.8 5.8 0.0
26/05/19 02:56 5.7 75 1.6 1.4 4.0 314 34.8 0.0 1017.0 4.0 5.7 5.7 0.0
26/05/19 02:55 5.7 75 1.6 1.4 4.0 314 34.8 0.0 1017.0 4.0 5.7 5.7 0.0
26/05/19 02:54 5.7 75 1.6 1.4 4.0 314 34.8 0.0 1017.0 4.0 5.7 5.7 0.0
26/05/19 02:53 5.7 75 1.6 1.4 4.0 314 34.8 0.0 1017.0 4.0 5.7 5.7 0.0
26/05/19 02:52 5.7 75 1.6 1.4 4.0 314 34.8 0.0 1017.0 4.0 5.7 5.7 0.0
26/05/19 02:51 5.7 75 1.6 1.4 4.0 314 34.8 0.0 1017.0 4.0 5.7 5.7 0.0
26/05/19 02:50 5.7 75 1.6 1.4 4.0 314 34.8 0.0 1017.0 4.0 5.7 5.7 0.0
26/05/19 02:49 5.7 74 1.4 1.4 4.0 314 34.8 0.0 1017.0 4.0 5.7 5.7 0.0
26/05/19 02:48 5.7 74 1.4 1.4 4.0 314 34.8 0.0 1016.0 4.0 5.7 5.7 0.0
26/05/19 02:45 5.7 74 1.4 0.0 0.0 0 0.0 0.0 1017.0 0.0 0.0 5.7 0.0
26/05/19 02:44 5.7 74 1.4 0.0 0.0 0 0.0 0.0 1017.0 0.0 0.0 5.7 0.0
26/05/19 02:43 5.7 74 1.4 0.0 0.0 0 0.0 0.0 1017.0 0.0 0.0 5.7 0.0
26/05/19 02:42 5.7 74 1.4 0.0 0.0 0 0.0 0.0 1017.0 0.0 0.0 5.7 0.0
26/05/19 02:41 5.7 74 1.4 0.0 0.0 0 0.0 0.0 1017.0 0.0 0.0 5.7 0.0
26/05/19 02:40 5.7 74 1.4 0.0 0.0 0 0.0 0.0 1017.0 0.0 0.0 5.7 0.0
26/05/19 02:39 5.7 74 1.4 0.0 0.0 0 0.0 0.0 1017.0 0.0 0.0 5.7 0.0
26/05/19 02:38 5.7 74 1.4 0.0 0.0 0 0.0 0.0 1017.0 0.0 0.0 5.7 0.0
26/05/19 02:37 5.8 74 1.5 0.0 0.0 0 0.0 0.0 1017.0 0.0 0.0 5.8 0.0
26/05/19 02:36 5.8 74 1.5 0.0 0.0 0 0.0 0.0 1017.0 0.0 0.0 5.8 0.0
26/05/19 02:35 5.8 74 1.5 0.0 0.0 0 0.0 0.0 1017.0 0.0 0.0 5.8 0.0
26/05/19 02:34 5.8 74 1.5 0.0 0.0 0 0.0 0.0 1017.0 0.0 0.0 5.8 0.0
26/05/19 02:33 5.8 74 1.5 0.0 0.0 0 0.0 0.0 1017.0 0.0 0.0 5.8 0.0
26/05/19 02:30 5.8 74 1.5 0.0 0.0 0 0.0 0.0 1017.0 0.0 0.0 5.8 0.0
26/05/19 02:29 5.8 74 1.5 0.0 0.0 0 0.0 0.0 1017.0 0.0 0.0 5.8 0.0
26/05/19 02:28 5.9 73 1.4 0.0 0.0 0 0.0 0.0 1017.0 0.0 0.0 5.9 0.0
26/05/19 02:27 5.9 73 1.4 0.0 0.0 0 0.0 0.0 1017.0 0.0 0.0 5.9 0.0
26/05/19 02:26 5.9 73 1.4 0.0 0.0 0 0.0 0.0 1017.0 0.0 0.0 5.9 0.0
26/05/19 02:25 5.9 73 1.4 0.0 0.0 0 0.0 0.0 1017.0 0.0 0.0 5.9 0.0
26/05/19 02:24 6.0 73 1.5 0.0 0.0 0 0.0 0.0 1017.0 0.0 0.0 6.0 0.0
26/05/19 02:23 6.0 73 1.5 0.0 0.0 0 0.0 0.0 1017.0 0.0 0.0 6.0 0.0
26/05/19 02:22 6.0 73 1.5 0.0 0.0 0 0.0 0.0 1018.0 0.0 0.0 6.0 0.0
26/05/19 02:21 6.0 73 1.5 0.0 0.0 0 0.0 0.0 1018.0 0.0 0.0 6.0 0.0
26/05/19 02:20 6.1 73 1.6 0.0 0.0 0 0.0 0.0 1018.0 0.0 0.0 6.1 0.0
26/05/19 02:19 6.1 73 1.6 0.0 0.0 0 0.0 0.0 1018.0 0.0 0.0 6.1 0.0
26/05/19 02:18 6.1 73 1.6 0.0 0.0 0 0.0 0.0 1018.0 0.0 0.0 6.1 0.0
26/05/19 02:15 6.0 72 1.3 1.4 4.0 314 34.8 0.0 1018.0 4.0 6.0 6.0 0.0
26/05/19 02:14 5.9 73 1.4 1.4 4.0 314 34.8 0.0 1018.0 4.0 6.0 5.9 0.0
26/05/19 02:13 5.8 73 1.3 1.4 4.0 314 34.8 0.0 1018.0 4.0 6.0 5.8 0.0
26/05/19 02:12 5.8 73 1.3 1.4 4.0 314 34.8 0.0 1018.0 4.0 6.0 5.8 0.0
26/05/19 02:11 5.9 73 1.4 1.4 4.0 314 34.8 0.0 1018.0 4.0 6.0 5.9 0.0
26/05/19 02:10 5.9 73 1.4 1.4 4.0 314 34.8 0.0 1018.0 4.0 6.0 5.9 0.0
26/05/19 02:09 5.9 72 1.2 1.4 4.0 314 34.8 0.0 1018.0 4.0 6.0 5.9 0.0
26/05/19 02:08 5.9 72 1.2 1.4 4.0 314 34.8 0.0 1018.0 4.0 6.0 5.9 0.0
26/05/19 02:07 5.9 72 1.2 1.4 4.0 314 34.8 0.0 1016.0 4.0 6.0 5.9 0.0
26/05/19 02:06 5.9 72 1.2 1.4 4.0 314 34.8 0.0 1016.0 4.0 6.0 5.9 0.0
26/05/19 02:05 5.9 72 1.2 1.4 4.0 314 34.8 0.0 1016.0 4.0 6.0 5.9 0.0
26/05/19 02:04 6.0 72 1.3 1.4 4.0 314 34.8 0.0 1016.0 4.0 6.0 6.0 0.0
26/05/19 02:03 6.0 72 1.3 1.4 4.0 314 34.8 0.0 1016.0 4.0 6.0 6.0 0.0
26/05/19 02:02 6.0 72 1.3 1.4 4.0 314 34.8 0.0 1016.0 4.0 6.0 6.0 0.0
26/05/19 02:02 6.0 72 1.3 1.4 4.0 314 34.8 0.0 1016.0 4.0 6.0 6.0 0.0
26/05/19 02:01 6.0 71 1.1 1.4 4.0 314 34.8 0.0 1016.0 4.0 6.0 6.0 0.0
26/05/19 02:00 6.0 71 1.1 1.4 4.0 314 34.8 0.0 1016.0 4.0 6.0 6.0 0.0
26/05/19 01:59 6.1 71 1.2 1.4 4.0 314 34.8 0.0 1016.0 4.0 6.1 6.1 0.0
26/05/19 01:58 6.1 71 1.2 1.4 4.0 314 34.8 0.0 1016.0 4.0 6.1 6.1 0.0
26/05/19 01:54 6.1 71 1.2 0.0 0.0 0 0.0 0.0 1016.0 0.0 0.0 6.1 0.0
26/05/19 01:53 6.1 71 1.2 0.0 0.0 0 0.0 0.0 1016.0 0.0 0.0 6.1 0.0
26/05/19 01:52 6.1 71 1.2 0.0 0.0 0 0.0 0.0 1016.0 0.0 0.0 6.1 0.0
26/05/19 01:51 6.1 71 1.2 0.0 0.0 0 0.0 0.0 1016.0 0.0 0.0 6.1 0.0
26/05/19 01:50 6.1 71 1.2 0.0 0.0 0 0.0 0.0 1016.0 0.0 0.0 6.1 0.0
26/05/19 01:49 6.2 71 1.3 0.0 0.0 0 0.0 0.0 1016.0 0.0 0.0 6.2 0.0
26/05/19 01:48 6.2 71 1.3 0.0 0.0 0 0.0 0.0 1016.0 0.0 0.0 6.2 0.0
26/05/19 01:45 6.3 71 1.4 0.0 0.0 0 0.0 0.0 1016.0 0.0 0.0 6.3 0.0
26/05/19 01:44 6.4 71 1.5 0.0 0.0 0 0.0 0.0 1016.0 0.0 0.0 6.4 0.0
26/05/19 01:43 6.4 71 1.5 0.0 0.0 0 0.0 0.0 1016.0 0.0 0.0 6.4 0.0
26/05/19 01:42 6.4 71 1.5 0.0 0.0 0 0.0 0.0 1016.0 0.0 0.0 6.4 0.0
26/05/19 01:41 6.4 71 1.5 0.0 0.0 0 0.0 0.0 1016.0 0.0 0.0 6.4 0.0
26/05/19 01:40 6.4 71 1.5 0.0 0.0 0 0.0 0.0 1016.0 0.0 0.0 6.4 0.0
26/05/19 01:39 6.5 71 1.6 0.0 0.0 0 0.0 0.0 1016.0 0.0 0.0 6.5 0.0
26/05/19 01:38 6.5 71 1.6 0.0 0.0 0 0.0 0.0 1016.0 0.0 0.0 6.5 0.0
26/05/19 01:37 6.5 70 1.4 0.0 0.0 0 0.0 0.0 1016.0 0.0 0.0 6.5 0.0
26/05/19 01:36 6.6 70 1.5 0.0 0.0 0 0.0 0.0 1016.0 0.0 0.0 6.6 0.0
26/05/19 01:35 6.6 70 1.5 0.0 0.0 0 0.0 0.0 1016.0 0.0 0.0 6.6 0.0
26/05/19 01:34 6.6 70 1.5 0.0 0.0 0 0.0 0.0 1016.0 0.0 0.0 6.6 0.0
26/05/19 01:33 6.7 70 1.6 0.0 0.0 0 0.0 0.0 1016.0 0.0 0.0 6.7 0.0
26/05/19 01:30 6.7 70 1.6 1.4 4.0 314 34.8 0.0 1016.0 4.0 6.7 6.7 0.0
26/05/19 01:29 6.6 70 1.5 1.4 4.0 314 34.8 0.0 1016.0 4.0 6.7 6.6 0.0
26/05/19 01:28 6.6 70 1.5 1.4 4.0 314 34.8 0.0 1016.0 4.0 6.7 6.6 0.0
26/05/19 01:27 6.6 70 1.5 1.4 4.0 314 34.8 0.0 1016.0 4.0 6.7 6.6 0.0
26/05/19 01:26 6.6 70 1.5 1.4 4.0 314 34.8 0.0 1016.0 4.0 6.7 6.6 0.0
26/05/19 01:25 6.6 70 1.5 1.4 4.0 314 34.8 0.0 1016.0 4.0 6.7 6.6 0.0
26/05/19 01:24 6.6 70 1.5 1.4 4.0 314 34.8 0.0 1016.0 4.0 6.7 6.6 0.0
26/05/19 01:23 6.6 70 1.5 1.4 4.0 314 34.8 0.0 1016.0 4.0 6.7 6.6 0.0
26/05/19 01:22 6.6 70 1.5 1.4 4.0 314 34.8 0.0 1017.0 4.0 6.7 6.6 0.0
26/05/19 01:21 6.6 70 1.5 1.4 4.0 314 34.8 0.0 1017.0 4.0 6.7 6.6 0.0
26/05/19 01:20 6.6 70 1.5 1.4 4.0 314 34.8 0.0 1017.0 4.0 6.7 6.6 0.0
26/05/19 01:19 6.6 70 1.5 1.4 4.0 314 34.8 0.0 1017.0 4.0 6.7 6.6 0.0
26/05/19 01:18 6.6 70 1.5 1.4 4.0 314 34.8 0.0 1017.0 4.0 6.7 6.6 0.0
26/05/19 01:17 6.7 70 1.6 1.4 4.0 314 34.8 0.0 1017.0 4.0 6.7 6.7 0.0
26/05/19 01:17 6.7 70 1.6 1.4 4.0 314 34.8 0.0 1017.0 4.0 6.7 6.7 0.0
26/05/19 01:16 6.7 69 1.4 1.4 4.0 314 34.8 0.0 1017.0 4.0 6.7 6.7 0.0
26/05/19 01:15 6.7 69 1.4 1.4 4.0 314 34.8 0.0 1017.0 4.0 6.7 6.7 0.0
26/05/19 01:14 6.7 69 1.4 1.4 4.0 314 34.8 0.0 1017.0 4.0 6.7 6.7 0.0
26/05/19 01:13 6.7 69 1.4 1.4 4.0 314 34.8 0.0 1017.0 4.0 6.7 6.7 0.0
26/05/19 01:12 6.8 69 1.5 1.4 4.0 314 34.8 0.0 1017.0 4.0 6.8 6.8 0.0
26/05/19 01:08 6.8 69 1.5 0.0 0.0 0 0.0 0.0 1017.0 0.0 0.0 6.8 0.0
26/05/19 01:07 6.8 69 1.5 0.0 0.0 0 0.0 0.0 1017.0 0.0 0.0 6.8 0.0
26/05/19 01:06 6.8 69 1.5 0.0 0.0 0 0.0 0.0 1017.0 0.0 0.0 6.8 0.0
26/05/19 01:05 6.8 69 1.5 0.0 0.0 0 0.0 0.0 1017.0 0.0 0.0 6.8 0.0
26/05/19 01:04 6.8 69 1.5 0.0 0.0 0 0.0 0.0 1017.0 0.0 0.0 6.8 0.0
26/05/19 01:03 6.8 69 1.5 0.0 0.0 0 0.0 0.0 1017.0 0.0 0.0 6.8 0.0
26/05/19 00:59 6.9 69 1.6 0.0 0.0 0 0.0 0.0 1017.0 0.0 0.0 6.9 0.0
26/05/19 00:58 7.0 68 1.5 0.0 0.0 0 0.0 0.0 1017.0 0.0 0.0 7.0 0.0
26/05/19 00:57 7.0 68 1.5 0.0 0.0 0 0.0 0.0 1017.0 0.0 0.0 7.0 0.0
26/05/19 00:56 7.0 68 1.5 0.0 0.0 0 0.0 0.0 1017.0 0.0 0.0 7.0 0.0
26/05/19 00:55 7.0 68 1.5 0.0 0.0 0 0.0 0.0 1017.0 0.0 0.0 7.0 0.0
26/05/19 00:54 7.0 68 1.5 0.0 0.0 0 0.0 0.0 1017.0 0.0 0.0 7.0 0.0
26/05/19 00:53 7.0 68 1.5 0.0 0.0 0 0.0 0.0 1017.0 0.0 0.0 7.0 0.0
26/05/19 00:52 7.1 68 1.6 0.0 0.0 0 0.0 0.0 1018.0 0.0 0.0 7.1 0.0
26/05/19 00:51 7.1 68 1.6 0.0 0.0 0 0.0 0.0 1018.0 0.0 0.0 7.1 0.0
26/05/19 00:50 7.1 68 1.6 0.0 0.0 0 0.0 0.0 1018.0 0.0 0.0 7.1 0.0
26/05/19 00:49 7.1 68 1.6 0.0 0.0 0 0.0 0.0 1018.0 0.0 0.0 7.1 0.0
26/05/19 00:48 7.1 68 1.6 0.0 0.0 0 0.0 0.0 1018.0 0.0 0.0 7.1 0.0
26/05/19 00:44 7.1 67 1.4 0.0 0.0 0 0.0 0.0 1018.0 0.0 0.0 7.1 0.0
26/05/19 00:43 7.1 67 1.4 0.0 0.0 0 0.0 0.0 1018.0 0.0 0.0 7.1 0.0
26/05/19 00:42 7.1 67 1.4 0.0 0.0 0 0.0 0.0 1018.0 0.0 0.0 7.1 0.0
26/05/19 00:41 7.1 67 1.4 0.0 0.0 0 0.0 0.0 1018.0 0.0 0.0 7.1 0.0
26/05/19 00:40 7.1 67 1.4 0.0 0.0 0 0.0 0.0 1018.0 0.0 0.0 7.1 0.0
26/05/19 00:39 7.0 67 1.3 0.0 0.0 0 0.0 0.0 1018.0 0.0 0.0 7.0 0.0
26/05/19 00:38 7.0 67 1.3 0.0 0.0 0 0.0 0.0 1018.0 0.0 0.0 7.0 0.0
26/05/19 00:37 7.0 67 1.3 0.0 0.0 0 0.0 0.0 1018.0 0.0 0.0 7.0 0.0
26/05/19 00:36 7.0 67 1.3 0.0 0.0 0 0.0 0.0 1018.0 0.0 0.0 7.0 0.0
26/05/19 00:35 7.1 67 1.4 0.0 0.0 0 0.0 0.0 1018.0 0.0 0.0 7.1 0.0
26/05/19 00:34 7.1 67 1.4 0.0 0.0 0 0.0 0.0 1018.0 0.0 0.0 7.1 0.0
26/05/19 00:33 7.1 67 1.4 0.0 0.0 0 0.0 0.0 1018.0 0.0 0.0 7.1 0.0
26/05/19 00:30 7.2 66 1.3 1.4 4.0 314 34.8 0.0 1018.0 4.0 7.5 7.2 0.0
26/05/19 00:29 7.3 66 1.4 1.4 4.0 314 34.8 0.0 1018.0 4.0 7.5 7.3 0.0
26/05/19 00:28 7.3 66 1.4 1.4 4.0 314 34.8 0.0 1018.0 4.0 7.5 7.3 0.0
26/05/19 00:27 7.3 66 1.4 1.4 4.0 314 34.8 0.0 1018.0 4.0 7.5 7.3 0.0
26/05/19 00:26 7.4 66 1.5 1.4 4.0 314 34.8 0.0 1018.0 4.0 7.5 7.4 0.0
26/05/19 00:25 7.4 66 1.5 1.4 4.0 314 34.8 0.0 1018.0 4.0 7.5 7.4 0.0
26/05/19 00:24 7.4 66 1.5 1.4 4.0 314 34.8 0.0 1018.0 4.0 7.5 7.4 0.0
26/05/19 00:23 7.4 66 1.5 1.4 4.0 314 34.8 0.0 1018.0 4.0 7.5 7.4 0.0
26/05/19 00:22 7.5 66 1.6 1.4 4.0 314 34.8 0.0 1018.0 4.0 7.5 7.5 0.0
26/05/19 00:21 7.5 66 1.6 1.4 4.0 314 34.8 0.0 1018.0 4.0 7.5 7.5 0.0
26/05/19 00:20 7.5 66 1.6 1.4 4.0 314 34.8 0.0 1018.0 4.0 7.5 7.5 0.0
26/05/19 00:19 7.5 66 1.6 1.4 4.0 314 34.8 0.0 1018.0 4.0 7.5 7.5 0.0
26/05/19 00:18 7.5 66 1.6 1.4 4.0 314 34.8 0.0 1018.0 4.0 7.5 7.5 0.0
26/05/19 00:17 7.5 66 1.6 1.4 4.0 314 34.8 0.0 1018.0 4.0 7.5 7.5 0.0
26/05/19 00:17 7.5 66 1.6 1.4 4.0 314 34.8 0.0 1018.0 4.0 7.5 7.5 0.0
26/05/19 00:16 7.5 66 1.6 1.4 4.0 314 34.8 0.0 1018.0 4.0 7.5 7.5 0.0
26/05/19 00:15 7.5 66 1.6 1.4 4.0 314 34.8 0.0 1018.0 4.0 7.5 7.5 0.0
26/05/19 00:14 7.5 66 1.6 1.4 4.0 314 34.8 0.0 1018.0 4.0 7.5 7.5 0.0
26/05/19 00:13 7.6 66 1.6 1.4 4.0 314 34.8 0.0 1018.0 4.0 7.6 7.6 0.0
26/05/19 00:12 7.6 66 1.6 1.4 4.0 314 34.8 0.0 1018.0 4.0 7.6 7.6 0.0
26/05/19 00:08 7.6 66 1.6 1.4 4.0 314 34.8 0.0 1018.0 4.0 7.7 7.6 0.0
26/05/19 00:07 7.6 66 1.6 1.4 4.0 314 34.8 0.0 1018.0 4.0 7.7 7.6 0.0
26/05/19 00:06 7.6 65 1.4 1.4 4.0 314 34.8 0.0 1018.0 4.0 7.7 7.6 0.0
26/05/19 00:05 7.6 65 1.4 1.4 4.0 314 34.8 0.0 1018.0 4.0 7.7 7.6 0.0
26/05/19 00:04 7.6 65 1.4 1.4 4.0 314 34.8 0.0 1018.0 4.0 7.7 7.6 0.0
26/05/19 00:03 7.6 65 1.4 1.4 4.0 314 34.8 0.0 1018.0 4.0 7.7 7.6 0.0
26/05/19 00:02 7.7 65 1.5 1.4 4.0 314 34.8 0.0 1018.0 4.0 7.7 7.7 0.0
26/05/19 00:02 7.7 65 1.5 1.4 4.0 314 34.8 0.0 1018.0 4.0 7.7 7.7 0.0
26/05/19 00:01 7.6 65 1.4 1.4 4.0 314 34.8 0.0 1018.0 4.0 7.6 7.6 0.0
26/05/19 00:00 7.6 65 1.4 1.4 4.0 314 34.8 0.0 1018.0 4.0 7.6 7.6 0.0
  Back to Top


This site is NOT a professional weather site.
Never base important decisions on this or any weather information obtained from the Internet.
Website Supported by Cumulus. Contact me Admin